Retour au catalogue

STARLINK-5403

ActifCommunicationsVLEO
NORAD 54862·PAYLOAD·🇺🇸 United States

Lancé Dec 28, 2022 depuis Cape Canaveral Space Force Station

Loading…

Prochains Passages (prochaines 24 heures)

TLE

FraisSource: CelesTrak SupGP

Époque: Sep 14, 2026, 20:59 UTC

1 54862C 22177AU  26257.87479167 -.00033505  00000+0 -12138-2 0  2576
2 54862  42.9996 133.1406 0001239 258.5464 133.7469 15.27587919    11

Suivez STARLINK-5403 en temps réel avec AllMySat

Download on the App Store